Theta_e
310 313 310 309 316 318 318 320 314 315 315 308 309 311 313 316 319 321 326 328 327 337 341 340 337 329 333 336 336 339 344 345 344 341 341 350 350 346 349 347 347 348 349 349 346 339 331 329 329 331 333 334 335 336 336 337 337 336 337 336 337 338 340 342 344 343 343 343 342 341 339 337 332 329 327 328 333 336 338 339 339 339 339 338 338 338 339 339 338 339 339 339 338 338 337 336 336
316 315 311 314 319 319 320 319 313 311 310 306 309 312 314 318 321 324 332 335 337 343 344 343 339 335 338 341 340 339 346 349 347 347 348 350 348 348 349 347 347 347 349 349 346 343 339 332 329 331 331 332 333 335 338 338 337 337 337 338 339 340 342 343 343 343 342 341 340 338 334 332 330 331 331 332 335 337 337 337 338 339 338 339 339 338 338 338 338 339 338 338 338 338 337 336 335
318 314 314 318 320 320 320 317 311 307 307 306 308 316 316 317 323 329 335 340 342 342 343 343 342 342 342 343 341 343 348 347 345 346 348 349 349 348 348 348 347 348 348 348 346 344 343 334 329 331 330 331 331 334 336 339 340 339 339 340 340 341 341 341 342 341 340 338 334 332 329 330 333 336 336 335 335 336 337 338 338 338 339 339 339 338 338 338 338 338 338 338 338 337 337 336 335
315 315 318 319 318 318 318 315 312 308 307 306 307 315 316 318 326 328 333 337 341 341 343 342 343 345 346 348 345 347 349 346 346 346 348 350 349 348 349 348 346 348 347 347 346 345 344 333 328 331 330 329 330 331 334 337 339 340 341 341 340 340 339 340 339 338 334 331 329 329 331 333 337 339 339 338 338 338 339 339 339 339 339 339 339 338 339 338 338 338 338 338 337 336 337 336 334
314 316 318 319 318 315 318 316 313 309 307 309 308 314 315 319 322 321 323 325 331 338 340 340 343 346 347 349 347 348 349 347 347 348 350 349 349 348 348 348 347 348 346 347 346 346 343 332 330 332 331 330 329 328 329 332 335 337 339 339 339 337 335 334 332 330 328 328 330 334 336 338 339 340 340 340 339 339 339 338 337 338 339 339 339 338 339 338 338 337 337 337 336 336 336 335 334
314 317 317 319 318 315 316 313 311 309 311 315 312 315 317 317 317 316 318 317 320 326 335 340 341 345 347 347 346 348 349 348 347 348 349 348 348 348 348 348 347 347 346 346 345 346 341 333 333 332 332 332 329 327 326 327 329 332 334 336 335 332 329 327 327 327 330 334 336 337 338 339 340 340 340 340 340 340 339 339 337 337 338 338 337 337 338 338 338 337 338 337 335 335 336 334 334
315 315 315 315 316 315 313 310 309 309 314 317 315 317 316 316 316 317 318 318 320 325 333 339 340 343 347 348 347 347 349 349 348 348 349 349 348 348 348 347 348 347 346 345 345 346 339 334 334 332 332 331 329 327 325 325 324 326 329 330 328 327 328 329 331 333 336 337 338 339 339 341 341 341 341 340 340 340 340 340 337 335 336 337 337 336 337 338 337 338 339 337 335 335 335 335 334
316 315 315 314 314 313 312 311 311 312 315 316 315 316 315 316 316 317 318 317 323 329 334 337 340 342 346 347 348 348 348 349 349 348 348 348 348 348 348 348 348 347 345 345 346 344 337 333 334 332 331 330 329 327 326 325 323 323 324 325 326 329 332 334 335 336 336 337 337 338 340 341 341 341 341 341 340 340 340 340 337 333 334 336 336 335 337 338 338 338 339 338 336 336 336 336 334
315 315 314 314 315 312 311 311 312 315 316 314 315 315 316 316 316 317 318 317 320 328 335 338 340 341 345 349 349 348 349 349 348 348 348 347 348 348 348 347 347 346 345 345 345 344 337 333 333 332 332 332 331 330 330 328 326 326 326 329 332 335 336 337 337 336 335 336 336 337 338 339 340 341 340 340 340 340 340 340 336 334 334 334 336 336 337 337 337 338 338 338 337 336 336 335 334
315 315 314 313 315 310 307 309 312 315 315 315 316 316 317 317 317 317 317 318 318 326 339 340 341 341 345 351 349 348 349 348 347 347 348 347 348 348 348 347 347 346 345 345 346 345 338 332 332 333 335 336 335 336 336 335 334 333 333 334 335 336 337 337 337 336 336 335 335 336 339 340 340 340 339 340 340 339 338 338 334 333 334 333 334 335 337 337 337 337 337 337 336 335 334 333 333
314 313 314 312 311 307 306 309 311 314 314 315 315 316 318 318 318 316 317 318 317 330 340 341 342 342 347 351 349 348 348 347 348 347 347 347 347 347 347 347 346 346 344 346 346 345 339 333 332 333 337 338 338 339 338 338 339 338 337 337 336 336 336 336 336 335 335 334 335 337 340 341 340 340 339 338 338 337 337 335 334 334 334 333 332 332 333 334 335 336 336 337 335 334 333 332 333
314 313 313 311 309 308 309 310 311 314 315 315 316 317 323 323 319 317 318 316 319 335 341 341 342 342 348 350 348 347 348 348 348 346 346 346 347 347 346 346 346 346 346 347 346 345 342 338 334 335 338 339 338 338 338 337 337 338 338 338 338 337 336 335 334 334 333 334 337 339 339 339 339 338 336 335 335 336 335 335 336 336 335 334 333 332 331 331 332 333 335 335 334 332 332 332 332
315 314 313 310 311 312 311 311 312 313 313 316 315 318 328 327 325 325 320 316 326 339 340 341 341 341 348 350 347 347 347 348 347 346 346 346 346 346 346 346 345 346 348 347 347 345 343 341 339 338 339 338 336 336 336 336 337 336 337 338 338 337 335 334 333 334 335 337 339 338 336 335 335 334 332 332 332 333 334 335 337 336 335 335 334 332 330 329 330 331 332 333 333 333 332 332 332
315 314 313 311 313 313 311 311 312 311 312 316 314 318 331 333 331 328 321 321 333 341 341 342 340 343 349 349 347 347 346 347 347 346 346 345 345 346 345 346 344 346 347 347 346 345 343 342 341 339 338 337 336 336 336 337 337 335 336 338 337 336 335 335 336 337 338 339 338 335 333 333 333 332 332 331 331 331 332 334 336 336 335 335 333 331 328 327 327 328 328 328 330 331 330 330 330
315 314 314 313 313 312 311 312 312 312 312 317 315 316 330 337 336 332 327 331 340 342 342 343 341 344 347 346 347 346 346 346 346 346 346 344 345 345 345 345 345 346 346 345 344 345 343 342 341 340 339 338 337 338 338 338 337 335 336 338 338 337 336 337 338 339 338 337 334 333 332 332 333 333 332 332 332 330 330 333 335 335 335 334 333 328 325 326 326 326 326 326 327 328 328 327 327
315 315 313 313 311 310 312 314 312 312 313 316 315 315 325 336 339 339 337 339 343 344 343 343 341 344 343 341 345 347 346 345 345 345 345 344 344 345 345 344 345 346 345 344 343 344 343 342 342 340 340 341 340 341 341 339 337 336 337 339 339 338 338 338 338 338 336 334 333 333 333 334 334 333 334 334 333 332 331 332 333 334 334 334 332 327 326 327 326 326 325 325 326 326 327 326 326
315 314 314 312 311 311 312 314 313 312 315 315 315 315 320 333 339 340 340 340 342 344 344 342 340 342 342 343 347 347 345 344 345 344 344 344 344 344 344 344 344 345 344 343 343 343 342 342 342 341 341 341 342 341 341 339 337 337 339 339 339 338 338 337 336 335 334 333 333 333 335 337 337 336 336 337 336 334 333 332 332 333 334 334 331 327 326 327 327 326 326 326 325 325 326 327 326
313 313 313 311 311 313 314 315 314 315 316 316 315 314 316 329 339 339 341 343 343 344 344 342 341 343 344 347 347 346 344 344 344 344 344 344 344 344 344 343 343 344 343 342 343 342 342 341 342 341 340 341 341 341 340 338 338 339 339 339 338 337 337 336 336 335 335 335 335 336 339 339 338 338 338 339 338 336 334 333 334 334 334 335 332 327 327 327 327 326 326 326 326 325 327 328 329
313 313 313 312 314 314 314 316 315 315 316 315 316 314 314 323 337 340 340 342 343 343 344 343 343 344 344 345 346 346 344 344 344 344 344 344 344 344 344 343 342 342 342 342 342 342 341 341 340 341 341 341 340 341 342 340 340 339 339 338 337 337 336 337 337 337 339 338 338 339 341 339 338 339 338 338 338 336 334 334 334 334 334 334 332 329 328 328 327 326 327 326 326 326 328 330 330
313 314 314 313 315 315 315 314 315 315 315 315 315 314 314 319 330 335 335 337 340 339 341 343 344 343 343 342 344 346 345 344 344 345 346 345 345 344 343 343 341 342 342 341 341 341 341 341 340 341 341 339 339 341 340 339 337 337 338 339 338 338 337 338 340 339 340 338 338 339 340 339 340 338 336 337 337 336 335 334 334 334 334 334 332 331 330 328 327 327 327 326 328 330 331 330 330
314 314 313 314 315 314 314 314 315 314 314 314 314 314 315 315 321 328 331 333 333 330 332 338 341 344 344 341 343 347 346 345 345 346 347 346 345 344 343 341 341 341 341 340 341 341 341 341 341 340 339 338 338 337 336 336 335 335 338 338 338 339 337 338 339 336 337 335 334 337 338 338 338 336 334 336 338 337 336 335 334 334 334 334 333 334 334 331 331 332 329 329 332 332 331 330 330
315 314 313 314 314 314 314 315 315 313 314 314 314 314 314 315 317 322 327 327 326 327 329 334 338 342 343 343 343 346 346 345 346 347 347 346 345 343 342 340 340 341 340 340 340 341 341 341 340 340 337 338 338 335 335 336 337 337 337 337 337 338 335 335 337 335 336 335 334 336 336 337 337 336 335 336 338 337 337 337 336 336 336 335 334 335 336 335 335 336 333 332 332 331 331 331 330
313 314 314 314 313 313 314 315 313 313 314 313 314 314 313 314 315 319 325 326 328 330 333 335 337 342 345 345 343 344 344 344 346 347 346 345 344 343 341 340 340 340 341 341 341 341 340 339 339 339 337 337 337 335 336 339 339 338 338 337 336 336 337 337 338 338 337 336 336 336 336 337 338 338 337 337 337 337 336 336 336 336 336 336 336 336 336 335 335 336 334 333 331 331 331 331 330
312 313 314 313 313 313 314 315 313 313 313 313 313 313 314 313 314 318 321 326 331 332 333 335 338 343 346 344 343 343 344 344 346 347 346 345 343 341 340 340 339 340 340 339 340 339 338 339 339 338 338 338 338 335 336 338 339 338 337 337 336 337 339 338 339 339 337 337 337 335 336 338 338 337 337 337 336 336 336 336 336 336 336 336 336 336 336 336 336 335 333 332 331 331 330 330 330
312 313 314 314 313 313 314 314 313 313 312 314 313 313 314 314 315 316 319 327 333 334 334 334 338 342 343 343 343 344 344 344 346 346 345 345 342 339 339 339 339 340 339 337 338 338 337 338 336 336 336 337 338 336 336 337 338 338 338 338 337 338 338 339 339 337 337 338 338 337 337 338 336 336 336 335 336 337 336 336 336 336 336 336 336 336 337 337 336 334 333 332 332 332 331 330 330
313 313 313 313 313 314 313 313 313 313 313 313 313 314 314 313 314 314 321 332 333 335 336 336 340 341 342 343 343 344 344 344 346 346 345 344 340 337 338 338 337 337 336 335 338 338 337 336 333 332 333 336 338 336 336 337 338 338 338 338 338 338 338 338 338 338 338 338 338 338 338 336 336 336 335 335 335 335 335 335 335 335 336 336 335 336 336 336 335 334 334 333 333 332 332 330 329
313 313 313 314 312 313 313 313 314 313 314 313 313 314 313 315 315 317 329 335 334 337 338 339 341 341 342 342 342 344 345 344 345 345 344 341 337 335 335 336 333 332 335 336 338 338 337 335 333 332 333 335 335 335 334 334 336 337 338 338 338 338 338 337 337 338 338 337 338 338 337 336 336 335 334 334 334 334 334 333 334 334 335 336 335 335 335 336 335 334 334 334 334 333 332 330 329
313 312 312 312 312 313 313 313 313 313 314 313 314 314 314 318 317 320 334 336 335 338 340 341 340 341 342 341 342 344 345 344 344 344 341 337 334 333 333 334 333 333 336 336 336 337 336 333 333 334 334 333 333 335 333 332 335 337 338 337 337 338 337 337 337 338 337 337 337 336 336 336 336 335 333 334 333 333 334 333 333 334 335 335 335 334 333 335 335 334 335 335 334 333 332 331 329
312 312 312 312 312 312 312 313 313 313 314 313 314 312 314 320 317 323 335 336 337 340 340 341 341 341 341 340 341 343 345 344 343 340 335 333 332 332 333 334 333 334 334 334 335 336 335 334 335 336 334 332 333 336 334 334 336 337 338 337 337 337 336 336 337 337 336 336 335 335 335 335 334 334 333 333 333 333 334 333 333 333 334 334 335 334 333 334 334 334 335 334 334 333 333 331 330
311 312 312 312 311 312 312 313 313 313 313 313 313 309 312 318 316 327 336 335 339 339 340 341 340 341 340 341 340 342 344 343 342 336 332 332 333 333 333 332 334 335 334 334 336 335 334 335 337 337 334 333 335 335 335 336 337 336 337 337 337 337 336 336 336 337 335 334 335 334 334 334 334 334 333 333 333 333 333 334 333 334 334 334 334 334 334 334 333 334 334 333 334 333 333 331 331
312 312 312 312 310 310 313 314 312 313 312 313 313 308 311 316 318 329 336 335 337 337 338 340 340 341 341 340 340 341 343 341 339 335 333 335 335 335 335 334 335 336 335 334 336 336 334 335 337 336 333 334 334 334 336 337 337 337 338 338 338 337 337 336 336 336 335 334 335 335 334 334 334 334 333 333 333 332 333 333 333 333 333 333 334 334 334 334 333 334 334 333 333 334 334 332 331
312 310 309 310 309 310 313 313 313 313 312 313 313 309 312 316 321 332 336 335 336 334 337 340 340 342 341 341 340 341 341 338 336 334 335 337 335 336 337 337 336 337 337 335 336 336 336 336 337 336 333 332 333 334 337 337 338 339 338 338 337 337 336 336 335 335 334 334 334 335 334 334 334 333 333 332 332 332 332 333 333 333 333 333 334 334 334 333 333 333 334 333 333 333 333 332 332
312 310 308 309 309 310 312 312 313 313 313 312 312 310 313 316 323 333 334 333 335 333 336 340 340 341 342 341 339 341 340 338 334 334 336 335 334 337 337 337 336 337 337 336 337 337 337 337 337 336 335 334 333 335 338 338 339 339 338 337 336 336 335 334 334 333 334 333 333 333 334 334 333 333 333 333 333 332 333 333 333 333 333 333 333 334 332 332 333 333 333 334 334 333 332 332 332
310 310 309 311 310 309 310 312 314 313 313 313 313 312 314 314 321 332 334 333 333 333 336 339 340 340 340 340 339 341 340 338 335 334 337 335 334 337 337 336 337 337 337 338 338 339 338 337 336 336 336 336 336 337 339 339 338 337 336 335 335 334 333 333 333 333 333 332 332 332 332 332 332 332 332 332 333 333 333 333 333 333 332 333 333 333 332 332 332 332 333 335 335 334 333 332 332
310 310 309 311 311 309 310 312 314 314 314 313 313 312 313 314 319 330 334 333 334 334 337 339 339 340 339 339 338 340 340 340 337 335 337 336 336 337 336 336 337 337 337 339 339 339 336 332 333 336 335 336 338 339 339 338 337 336 334 334 333 333 332 333 332 331 331 331 331 330 331 331 330 331 331 332 333 333 332 332 333 332 332 333 333 333 332 332 332 333 334 334 334 334 333 333 333
311 311 310 309 309 310 312 315 315 315 314 314 314 313 314 314 317 328 334 335 336 336 338 340 339 338 338 338 337 339 340 340 339 336 336 337 337 338 336 336 337 338 338 338 339 339 335 329 329 333 334 336 338 339 338 337 336 335 334 333 332 332 331 331 331 330 330 330 330 329 329 329 330 330 330 331 332 332 332 332 332 332 332 333 333 333 332 332 332 333 334 334 333 332 331 331 332
313 313 311 311 310 310 313 316 315 315 315 314 316 315 315 314 317 329 335 335 337 337 339 339 338 338 337 338 337 339 340 340 340 337 336 337 338 338 337 335 336 337 337 338 339 337 334 333 332 334 337 339 339 338 337 336 335 334 333 333 331 330 330 330 330 330 329 330 330 329 329 329 329 329 329 330 331 331 331 331 331 331 332 332 332 332 331 331 332 333 333 333 333 331 330 330 330
313 312 311 310 311 311 314 316 314 315 315 315 316 316 315 317 321 330 335 336 336 336 339 340 338 337 337 338 338 339 340 339 339 337 336 338 338 338 337 336 336 337 337 338 340 337 335 337 337 338 341 340 338 338 337 336 334 333 333 332 331 330 329 329 329 330 329 329 329 329 329 329 329 329 329 329 329 330 330 331 331 331 331 331 331 331 331 331 332 332 333 332 332 331 331 331 330
313 312 311 311 311 312 315 316 316 316 316 316 317 315 316 321 325 330 333 334 335 335 337 338 338 338 337 338 338 338 340 339 338 338 338 338 337 337 336 336 336 337 338 338 339 338 337 338 339 340 340 340 338 338 337 336 335 334 333 332 331 330 330 330 328 328 328 327 327 328 328 329 328 328 328 328 328 328 328 329 329 329 331 331 331 331 331 331 331 332 332 331 331 331 331 331 331
314 313 311 311 312 311 312 315 318 316 317 318 317 315 319 326 328 332 334 334 336 335 335 336 337 338 338 338 338 337 340 340 339 338 338 338 337 337 336 335 335 336 338 338 338 338 337 337 338 338 339 339 338 337 336 336 334 333 333 332 331 330 330 329 328 327 326 324 325 325 326 327 328 327 327 327 327 327 327 327 328 328 329 330 331 331 330 330 331 331 331 331 331 331 331 331 331
313 314 312 312 313 312 312 316 318 317 317 319 316 313 317 325 326 331 336 336 336 336 335 336 336 337 338 339 338 337 339 340 339 338 338 338 337 336 334 332 332 336 337 338 339 339 338 336 334 336 340 340 338 337 336 336 333 331 331 331 330 330 329 328 326 325 325 324 323 323 324 325 326 326 326 326 325 326 327 326 326 327 328 329 330 330 330 330 330 331 331 331 331 331 330 330 330
311 315 315 314 316 315 316 317 317 315 314 317 317 310 313 320 323 327 334 335 336 336 336 336 337 337 337 338 338 337 338 339 339 339 338 339 336 332 333 331 330 335 337 338 339 339 337 336 334 336 340 341 338 336 335 335 333 331 331 330 330 329 328 327 326 325 325 323 321 321 322 324 325 325 326 326 325 326 326 326 326 327 327 328 328 329 329 329 330 330 330 331 331 331 330 330 330
310 314 315 316 317 316 317 317 314 312 312 317 319 313 311 315 319 326 334 334 335 335 336 337 337 337 337 338 338 337 337 337 338 339 338 339 337 332 333 333 330 333 338 339 339 339 337 337 337 338 339 340 339 336 335 334 332 331 331 330 329 329 328 328 326 325 324 322 322 322 322 324 324 324 325 325 325 325 326 326 326 327 327 327 327 326 327 327 327 327 328 330 330 330 330 330 330
312 316 317 315 316 316 317 316 314 313 314 316 318 315 311 310 316 327 333 332 334 336 336 336 337 337 337 337 338 337 337 336 337 338 338 339 339 336 334 333 332 335 338 338 338 339 338 337 338 338 338 339 339 336 335 334 332 331 332 330 328 327 327 327 326 325 323 322 322 322 322 322 323 324 324 325 325 325 325 325 326 327 326 326 325 325 325 325 325 326 326 327 328 329 330 330 330
315 317 317 315 316 316 317 316 313 314 315 312 312 314 311 310 316 325 330 330 332 334 335 336 336 336 338 338 339 338 337 337 336 336 337 338 340 339 337 336 336 337 338 337 337 337 337 337 338 338 337 338 338 337 335 335 332 332 332 329 328 327 326 326 324 323 323 323 322 322 321 321 322 324 325 325 324 324 323 324 325 325 325 324 324 324 324 324 325 326 327 328 328 330 330 330 330
316 316 315 315 315 316 316 315 313 314 314 311 312 314 311 310 314 318 323 327 328 330 332 333 334 335 336 338 339 339 338 337 336 335 336 338 340 338 338 338 338 337 337 336 335 335 334 335 334 333 332 332 334 335 335 335 333 331 331 330 329 328 327 325 323 323 323 323 322 322 322 321 322 323 324 325 324 322 323 323 323 324 324 323 322 322 322 323 324 325 327 328 328 329 329 329 330
315 315 315 314 315 316 316 315 313 313 313 312 314 316 314 311 312 315 320 323 324 327 328 329 331 332 335 337 338 338 337 337 335 335 336 339 340 339 338 338 338 338 336 333 332 332 331 330 330 330 328 328 329 329 332 334 332 330 330 330 329 328 327 325 323 323 323 323 322 322 321 321 322 323 323 323 323 322 321 322 323 322 323 322 321 321 321 322 323 324 324 324 325 327 327 328 328
315 315 314 313 313 314 313 313 314 313 312 313 314 316 314 311 312 317 322 324 325 326 326 326 327 326 329 333 336 336 336 336 335 335 335 337 338 338 338 338 337 334 330 328 328 329 328 327 328 329 328 329 329 327 327 330 331 330 329 330 329 328 326 325 324 324 322 322 322 321 320 321 322 323 322 322 321 321 320 321 322 321 321 320 320 321 322 321 321 321 321 321 322 323 324 325 326
316 315 313 311 311 312 312 312 313 312 313 315 316 316 314 311 315 320 324 326 327 327 327 326 325 325 325 326 331 334 335 335 335 335 335 335 336 337 338 339 335 329 326 326 326 326 326 326 327 327 326 326 327 325 326 328 330 329 329 330 329 328 326 324 323 323 321 320 320 320 320 320 321 321 321 320 320 319 319 320 320 319 319 319 320 321 321 321 320 319 318 319 319 320 321 321 322
314 313 312 311 310 312 313 312 312 312 313 315 317 317 312 311 317 324 326 327 327 327 327 327 327 328 326 323 327 332 333 334 333 334 335 334 336 337 338 337 333 327 326 326 325 326 326 326 326 326 324 324 325 324 324 327 328 327 328 330 329 327 327 324 322 321 321 319 319 319 319 319 320 320 320 320 319 317 317 318 317 316 316 317 318 320 319 320 320 318 317 318 318 319 319 318 319
315 314 313 311 309 311 312 311 310 310 313 315 317 316 312 311 318 324 326 327 328 327 327 327 327 327 326 325 326 330 332 333 333 333 334 334 335 336 336 333 328 326 325 325 326 325 326 326 326 325 324 324 324 323 324 325 326 325 328 330 329 327 326 324 321 321 320 319 318 318 318 318 319 319 319 320 319 317 316 315 315 314 314 314 315 317 318 318 318 317 316 317 317 317 317 316 316
315 315 313 311 311 311 311 314 315 313 312 314 315 314 313 316 320 324 326 327 328 328 328 328 328 328 327 327 328 330 332 331 332 332 332 333 335 335 334 330 327 327 326 326 326 326 326 325 324 325 324 323 324 323 324 325 325 324 325 328 329 327 325 323 321 320 320 319 318 317 317 317 318 319 319 319 318 317 316 315 314 314 313 313 314 315 316 316 317 316 315 316 315 315 315 315 315
314 313 312 313 314 313 312 315 319 315 312 313 314 314 314 317 320 324 326 328 329 329 329 329 329 330 330 330 330 330 331 331 331 331 331 332 333 332 331 328 328 329 328 326 326 326 327 325 323 325 325 323 323 324 325 326 326 323 322 325 327 326 325 323 320 321 322 320 319 318 317 317 317 318 318 319 318 317 316 316 316 316 315 314 314 314 314 315 316 315 315 315 314 313 313 314 314
314 312 312 314 315 314 312 312 314 313 312 313 314 314 313 313 317 323 326 329 330 329 329 330 331 331 331 331 331 330 330 330 331 330 328 329 330 329 328 328 328 329 328 327 326 326 326 325 324 325 325 324 324 324 324 324 325 323 322 324 325 324 325 322 318 319 321 321 321 319 319 319 317 316 317 318 318 317 317 317 317 318 317 315 314 314 314 314 314 315 314 314 314 313 313 313 314
313 313 314 313 312 312 311 312 313 313 312 313 314 314 312 311 315 320 323 329 332 330 330 330 330 330 331 331 330 328 329 330 329 328 326 327 329 328 327 328 328 328 328 328 327 326 326 326 325 326 326 326 324 324 324 322 323 324 323 323 323 324 326 323 318 318 320 322 322 319 319 321 319 316 316 317 318 317 317 318 318 318 318 317 316 316 315 315 314 314 314 314 314 314 313 313 314
312 312 314 314 312 312 312 312 312 312 312 313 314 314 311 313 318 322 325 329 331 330 330 329 328 329 330 330 329 328 328 328 326 325 324 326 327 326 326 327 327 327 328 328 326 325 326 326 325 324 326 326 326 325 324 323 324 324 323 324 325 325 326 324 320 319 320 321 319 316 318 321 320 317 317 317 317 317 317 317 317 317 318 317 317 317 317 316 315 314 314 313 314 314 313 313 313
312 312 312 312 313 313 313 313 311 311 311 312 314 313 313 318 322 324 326 329 331 330 330 328 326 327 328 328 328 327 328 327 326 325 324 325 326 325 325 327 327 326 327 327 325 325 326 326 325 324 325 327 328 327 326 326 325 325 325 326 326 327 326 325 323 321 321 321 318 317 319 321 321 320 318 317 317 317 317 317 317 317 318 318 317 317 318 318 317 316 315 314 314 314 313 312 312
312 312 311 312 312 311 312 312 312 311 310 311 312 311 316 322 322 321 323 326 328 330 328 326 325 325 326 326 326 327 327 327 327 326 325 327 328 326 325 326 326 325 326 326 325 325 326 327 327 327 326 327 328 328 328 327 327 326 326 326 327 327 327 326 325 323 323 321 318 319 320 320 321 321 319 318 318 317 317 317 316 317 317 317 317 317 318 318 318 318 317 316 316 315 314 314 314
Wind_Speed
4 4 5 7 7 7 7 6 5 4 5 7 7 6 3 3 1 2 1 1 2 2 1 2 2 2 1 2 1 3 8 5 4 2 1 4 9 15 18 20 25 25 25 24 24 26 27 28 26 26 27 27 27 27 28 27 28 28 28 28 28 28 26 23 22 21 21 20 19 19 18 16 16 15 15 16 17 17 17 18 17 16 15 15 14 14 13 14 14 13 13 13 13 13 13 12 12
5 5 6 7 8 8 4 4 5 4 7 7 7 6 5 6 3 1 3 4 3 4 2 2 4 3 1 3 1 1 6 9 9 6 5 8 12 14 18 22 26 25 25 24 24 24 24 27 28 27 28 28 27 28 29 29 29 30 29 29 28 27 24 22 22 21 20 20 19 18 18 17 17 16 16 17 17 17 16 17 17 16 15 15 14 14 14 14 14 14 13 13 13 13 13 13 13
6 6 8 8 8 7 2 4 6 5 7 7 7 5 5 5 4 5 6 6 6 5 3 4 5 3 1 3 1 1 4 7 8 8 7 11 12 14 21 24 25 25 25 25 24 23 22 26 29 27 28 28 28 28 29 29 29 30 29 28 27 25 23 23 22 21 20 20 19 19 18 17 16 16 16 17 17 17 16 16 16 15 15 14 14 14 14 14 14 14 14 13 13 13 13 13 13
7 7 9 9 6 6 4 5 6 6 6 7 5 6 6 6 6 6 6 6 4 3 2 3 4 2 3 2 3 2 6 6 7 7 7 10 12 18 22 23 24 23 23 23 24 23 22 27 29 28 28 28 28 28 28 29 29 29 28 27 26 24 23 23 22 21 21 20 20 19 18 17 16 16 16 16 17 16 16 15 15 15 14 14 14 13 13 13 14 14 14 13 13 13 13 13 14
6 8 9 8 5 3 5 5 5 7 6 5 2 5 6 5 5 3 4 2 2 3 2 3 3 3 2 5 2 0 6 5 6 7 8 11 16 21 22 23 23 22 22 22 23 23 23 28 29 28 28 27 27 27 28 28 28 28 27 26 25 25 24 23 23 23 22 21 19 18 17 17 16 16 16 17 17 17 16 16 15 15 14 14 14 13 13 13 13 14 13 13 12 13 13 13 14
7 9 8 8 4 1 4 5 6 8 7 5 2 6 5 3 3 2 1 2 3 4 4 4 2 5 4 6 3 4 4 2 6 8 9 14 19 22 22 23 22 21 21 21 22 23 25 28 28 28 28 27 27 27 27 27 26 27 27 26 25 25 25 24 24 23 22 20 18 17 16 16 15 15 16 18 17 17 16 15 14 14 14 13 13 13 13 13 13 13 13 12 12 13 13 12 13
9 9 7 7 3 2 7 7 7 8 4 3 2 4 3 3 4 3 3 3 3 5 6 5 4 5 5 6 4 6 3 1 4 9 13 17 20 21 22 22 21 21 20 20 21 23 27 28 28 29 28 27 28 27 27 27 27 27 27 26 26 25 25 24 24 22 20 19 18 16 15 14 14 13 14 17 17 16 16 15 13 12 13 12 12 13 12 13 12 12 12 12 12 12 12 11 10
10 7 4 6 5 4 7 7 8 6 2 2 2 2 4 6 6 5 4 4 3 5 7 7 7 5 5 6 4 6 4 3 6 12 16 19 21 21 21 21 21 21 20 20 21 24 28 28 28 28 28 29 28 28 28 27 27 27 27 27 26 25 24 23 22 21 20 19 17 16 14 13 14 14 14 16 16 15 14 13 12 11 12 11 12 13 13 12 12 13 12 12 12 11 10 9 8
10 6 3 6 5 5 7 7 7 6 2 1 3 3 4 6 8 7 6 6 3 4 7 9 8 4 7 6 5 6 4 8 11 15 17 19 20 20 20 20 21 20 19 20 22 25 27 28 27 27 28 29 28 28 28 27 27 27 27 26 25 24 23 22 21 21 19 18 17 15 14 12 14 15 14 14 14 13 12 12 11 10 12 11 11 12 13 12 11 11 11 11 11 10 8 6 5
8 5 4 6 5 6 7 7 6 3 2 3 2 2 3 6 8 8 8 7 5 6 6 7 6 5 9 8 7 6 6 11 14 15 16 18 19 18 18 18 19 20 20 21 23 25 26 28 27 27 28 27 27 26 26 26 26 26 25 25 24 24 23 22 21 20 19 18 16 15 13 12 13 13 12 12 12 11 11 11 10 10 11 11 11 11 12 11 11 10 9 9 9 9 7 5 4
6 4 4 6 6 7 7 6 5 3 2 2 1 2 3 5 8 8 9 7 7 8 8 7 7 8 10 8 6 5 8 12 14 16 17 17 17 17 17 17 19 19 20 22 23 24 25 27 27 27 27 26 26 26 26 25 24 24 24 23 23 23 22 21 21 20 19 17 16 15 14 13 13 12 11 11 11 11 11 10 9 10 11 11 10 10 10 10 10 10 9 8 8 8 7 6 5
6 6 5 7 7 6 5 4 4 2 3 3 1 5 4 4 6 7 9 8 8 9 10 8 7 9 9 8 5 7 10 11 13 17 17 17 17 17 17 17 18 19 20 21 22 23 24 25 25 26 26 26 26 25 25 24 23 23 22 22 22 22 22 21 20 20 19 17 16 16 14 12 12 11 10 11 11 11 10 10 10 10 11 10 9 9 9 9 9 9 9 8 8 8 8 7 6
6 6 7 6 6 5 4 4 2 2 4 3 3 6 3 3 5 6 7 7 9 10 10 6 7 8 7 7 6 7 9 10 14 16 16 16 16 17 17 17 18 18 19 20 20 21 22 23 23 24 24 25 26 25 24 23 22 21 21 21 21 21 20 20 19 19 19 17 16 16 15 12 11 10 10 11 11 10 10 9 10 10 10 9 8 7 7 7 8 8 8 7 7 8 8 7 5
6 4 6 6 5 5 5 5 3 5 4 5 4 5 2 1 3 4 6 10 9 8 8 5 6 7 6 7 5 7 9 12 16 16 16 16 16 16 16 17 18 18 17 17 19 20 21 20 21 22 23 23 25 24 23 22 21 20 20 20 20 20 19 19 18 18 17 16 16 16 14 13 11 11 11 11 10 10 10 9 9 10 9 9 8 6 6 7 7 6 6 6 6 7 8 6 5
6 3 6 6 5 6 6 5 3 6 3 7 4 5 1 2 1 2 4 8 8 6 7 5 2 3 6 7 5 10 13 15 17 17 17 16 16 16 16 17 17 16 16 16 18 19 19 19 19 20 21 21 22 21 21 20 19 18 18 19 20 19 18 17 16 16 15 16 16 15 14 13 12 12 11 10 10 10 10 9 8 9 9 9 7 6 7 7 7 7 6 6 6 7 7 7 6
5 4 5 6 7 7 6 5 4 5 4 7 3 5 0 4 1 1 2 2 8 6 4 4 2 2 4 4 5 15 18 18 19 18 18 17 17 16 16 17 16 15 14 15 16 17 17 18 18 18 18 18 18 17 18 19 18 17 17 18 19 18 17 16 15 14 15 15 15 15 14 13 12 11 11 10 10 10 10 10 9 9 9 9 7 7 8 9 9 8 7 7 7 7 7 8 8
4 5 6 6 8 6 5 7 4 3 6 7 4 6 2 5 3 2 3 3 9 7 2 4 2 2 1 4 11 21 21 19 21 20 19 18 17 17 16 17 17 15 14 14 15 15 16 17 16 16 16 16 16 16 16 18 17 16 18 18 18 17 17 16 15 14 14 14 14 14 12 11 11 10 9 9 9 9 10 10 10 9 9 9 8 8 9 10 9 8 8 8 7 8 8 7 7
5 6 7 7 8 5 4 5 2 2 5 5 5 6 5 3 5 4 5 7 9 7 5 5 3 3 5 10 17 22 21 20 21 20 20 18 17 16 15 16 16 15 15 14 14 14 14 15 16 15 14 14 15 15 14 16 16 17 18 18 18 17 16 16 15 15 14 13 13 12 9 8 9 9 9 9 8 8 9 10 10 10 10 10 9 8 9 9 8 7 7 7 7 7 7 5 4
7 6 7 8 6 3 1 0 1 1 3 4 5 5 6 3 5 4 6 8 9 8 8 6 6 7 8 12 17 20 20 20 20 20 20 18 18 17 16 16 16 15 15 15 14 14 14 14 15 14 14 14 15 13 12 14 15 15 17 17 17 16 15 15 15 14 12 11 11 9 7 6 7 8 8 9 9 9 9 9 10 10 10 10 10 9 8 8 8 7 7 7 7 6 5 3 3
8 6 7 7 4 2 1 1 0 2 4 3 4 4 4 3 2 4 6 10 10 9 9 8 8 10 10 12 16 19 20 18 19 20 19 19 18 18 16 17 17 15 15 16 15 14 14 14 14 14 14 15 14 13 12 15 14 14 15 13 13 14 14 13 13 12 10 10 9 7 6 6 6 7 8 8 8 7 7 8 9 10 10 10 11 9 8 8 7 6 7 7 6 3 3 3 3
6 7 9 4 2 5 4 3 2 1 4 4 3 2 1 4 1 3 6 10 9 8 9 7 8 12 13 13 15 18 18 17 18 19 19 18 17 17 16 18 17 15 15 16 15 14 14 14 14 14 15 15 14 13 13 14 14 15 14 12 11 12 12 11 10 10 9 8 8 6 6 6 6 8 8 7 6 5 6 7 8 8 8 9 10 9 8 9 8 7 7 6 5 3 3 3 2
5 9 10 4 2 6 4 4 1 1 3 4 3 2 2 2 3 2 6 9 6 4 4 2 5 12 15 15 15 16 16 16 17 18 18 18 17 16 15 17 16 15 15 15 15 14 14 14 13 14 14 14 13 13 13 12 13 14 13 11 10 9 10 9 8 9 8 7 7 6 7 6 6 6 7 6 5 4 4 5 5 6 7 8 9 8 8 10 9 7 7 6 5 4 3 3 3
7 9 9 6 5 6 3 2 1 1 4 4 3 3 2 3 3 1 6 5 4 4 2 0 3 9 14 15 15 16 17 16 16 18 18 18 17 16 16 17 17 15 14 15 15 14 14 13 12 12 13 13 13 12 12 11 10 12 12 11 9 8 9 8 7 8 7 7 7 7 7 6 5 4 4 5 5 4 3 4 4 5 7 7 8 8 9 9 9 7 7 6 5 5 4 4 4
10 8 7 9 8 7 7 4 2 3 6 4 4 4 4 6 2 1 6 3 4 4 3 2 4 9 13 14 14 15 16 15 15 16 16 16 16 16 16 16 17 15 15 14 13 14 13 12 11 12 11 10 12 12 11 9 8 10 11 11 9 7 6 5 5 6 6 6 6 6 6 4 4 4 4 4 3 3 3 4 4 5 6 7 7 8 8 8 7 7 6 6 5 5 5 5 4
13 10 6 7 7 8 9 7 6 6 6 4 5 7 6 4 2 3 6 3 1 3 2 5 7 10 12 13 13 14 13 14 13 13 14 13 16 18 17 17 15 12 13 13 12 13 12 12 13 14 13 10 10 11 9 7 6 7 9 8 8 7 5 4 5 5 4 5 5 5 4 4 4 3 4 3 3 3 3 4 5 6 6 6 7 7 6 6 6 6 6 6 6 5 5 5 5
11 13 7 7 8 8 9 8 9 7 5 4 7 9 5 2 3 5 5 3 2 2 4 7 9 11 11 11 12 12 12 12 11 12 11 11 17 19 15 13 12 10 12 13 13 13 12 13 15 16 15 11 10 11 11 8 4 5 6 6 6 6 5 5 5 4 4 4 4 4 3 3 3 3 4 3 4 5 4 5 5 5 6 6 7 7 6 6 6 6 6 6 5 5 5 5 5
5 12 9 9 9 8 8 9 9 7 5 7 9 8 4 3 5 6 6 6 5 6 7 8 9 10 10 10 11 11 11 10 9 10 9 10 16 20 16 13 12 12 15 15 13 11 12 15 14 14 14 13 12 11 12 10 4 5 5 5 5 5 5 5 5 4 4 4 3 3 3 4 3 3 4 5 7 7 6 6 6 6 6 6 7 8 7 6 6 6 6 5 5 5 4 5 5
1 7 8 10 10 8 9 10 9 7 7 8 9 7 4 6 8 4 8 8 7 8 9 9 9 9 10 10 10 9 8 9 8 7 6 11 19 22 20 18 17 16 18 19 17 13 13 15 14 13 14 15 14 11 10 9 6 6 5 5 4 5 5 5 5 4 5 6 4 4 4 4 3 3 5 8 9 7 6 7 7 7 6 6 7 8 7 6 6 6 5 4 4 4 4 5 4
4 5 7 9 10 10 12 12 9 7 6 6 6 7 7 10 10 5 9 8 8 8 9 9 9 9 10 10 9 8 7 8 7 10 18 24 27 27 27 27 27 24 22 22 22 17 14 16 15 13 14 15 13 11 9 9 7 7 5 5 4 4 5 5 5 5 7 8 7 5 5 5 4 4 8 10 8 6 6 6 6 6 5 5 6 6 6 6 6 5 5 4 4 5 5 5 4
7 7 7 7 8 10 13 11 8 8 5 5 7 8 9 13 12 8 8 9 9 9 9 9 9 8 9 9 9 8 7 7 8 16 23 28 29 28 28 29 28 27 23 20 20 18 15 15 14 12 14 13 11 10 9 8 7 6 6 5 5 5 6 6 6 5 6 5 5 4 4 4 3 4 7 10 7 5 5 5 4 5 5 5 5 6 6 6 7 6 6 6 5 5 5 6 5
8 8 6 6 7 7 12 11 10 11 5 6 9 7 8 12 14 11 9 10 10 9 8 8 8 7 8 8 9 8 9 8 13 20 21 22 20 18 21 24 23 21 19 17 17 17 16 16 14 13 14 12 11 10 9 7 7 6 6 6 6 7 7 6 6 5 3 3 3 3 3 4 4 4 5 7 5 4 4 4 4 5 4 4 6 6 6 7 7 6 7 7 6 6 6 6 6
7 7 7 8 7 5 10 10 11 11 6 9 11 7 8 8 13 12 9 9 9 8 8 7 7 7 7 7 8 8 10 10 17 20 19 16 12 10 15 19 21 19 16 17 18 17 17 16 13 12 13 14 12 11 9 9 8 8 7 7 7 6 6 5 5 4 4 4 4 4 4 4 4 4 3 3 4 4 4 3 4 4 3 4 6 6 6 7 7 5 6 6 5 6 7 7 6
7 7 7 7 8 6 7 10 11 10 6 10 12 9 7 5 11 10 9 10 9 8 8 8 7 7 7 7 8 8 10 10 14 16 16 14 9 9 12 16 20 19 16 16 18 17 16 15 14 13 13 13 12 11 11 11 9 9 8 8 7 6 5 4 4 4 4 4 3 4 4 3 3 3 3 3 3 3 2 3 3 4 3 4 5 5 6 6 6 5 5 5 5 5 6 6 6
6 8 7 6 9 8 6 9 10 9 7 10 12 11 8 4 9 10 9 9 10 9 8 8 7 6 6 7 8 8 9 9 11 14 15 12 10 11 12 15 17 18 16 15 16 16 15 15 16 15 14 13 13 14 13 12 10 10 8 8 7 6 5 4 4 4 4 4 3 4 3 3 3 3 3 3 3 2 2 2 3 3 4 4 5 5 5 5 5 5 5 5 5 5 6 5 4
7 8 7 6 7 8 7 6 8 10 10 11 11 12 12 6 7 9 9 9 9 9 7 8 7 7 7 7 8 8 9 9 9 14 15 12 11 11 12 14 16 16 16 14 14 14 14 16 17 16 16 17 17 17 15 14 12 10 9 8 8 6 5 4 4 4 4 4 5 5 4 3 2 2 3 2 2 2 1 1 2 3 3 3 4 4 4 3 4 5 6 5 4 4 4 3 3
6 7 7 7 7 8 8 4 6 6 8 10 11 10 12 11 9 10 10 9 8 8 7 6 7 7 7 8 8 7 9 9 11 15 14 13 13 13 13 13 14 14 13 13 13 13 13 16 19 19 20 20 18 16 15 14 12 10 10 9 8 7 6 5 5 5 5 5 5 5 4 3 3 3 3 3 4 3 2 2 2 2 2 3 3 4 3 3 4 4 5 5 5 5 4 3 3
3 5 6 7 6 7 9 5 5 2 6 9 11 10 12 12 10 11 10 10 9 8 8 7 7 7 7 8 8 8 8 8 13 16 13 12 13 13 13 13 14 13 12 13 13 13 13 15 18 18 18 17 16 15 14 13 12 10 10 10 9 9 8 7 6 5 5 6 6 6 5 4 4 4 4 4 5 5 5 4 2 2 2 2 2 2 2 3 4 4 4 4 5 6 4 4 5
5 6 6 7 7 6 6 4 3 2 5 8 9 11 13 9 8 10 10 10 10 9 9 8 8 8 7 8 9 9 8 8 12 14 13 13 13 13 12 13 15 15 14 14 14 13 14 15 14 14 14 14 15 14 13 12 11 10 10 10 10 10 9 8 7 7 6 6 6 6 5 5 5 5 5 5 5 5 5 5 3 3 2 2 1 1 2 3 3 4 4 4 4 4 3 4 5
6 7 6 6 7 6 5 5 3 4 5 6 8 11 9 6 6 10 10 9 9 8 9 8 8 8 7 8 9 9 9 9 10 11 14 13 12 13 13 12 15 17 15 15 14 13 14 14 12 12 13 13 14 14 13 12 11 11 11 11 11 10 9 8 8 8 7 7 7 6 5 5 4 5 5 5 6 5 5 4 3 2 3 3 2 2 2 2 2 3 3 3 3 3 3 3 3
8 7 7 6 7 7 4 6 5 3 4 5 5 9 6 6 6 8 7 6 6 7 8 8 8 8 7 7 8 10 11 11 10 11 13 14 13 11 10 10 13 16 15 15 15 15 16 16 14 14 14 14 15 14 13 14 14 13 13 13 11 11 11 10 10 9 8 7 6 6 5 5 4 4 5 5 5 5 4 3 3 2 3 4 3 3 3 2 2 3 3 3 4 4 4 3 3
9 8 8 6 7 7 3 4 4 3 4 5 6 8 6 7 9 9 6 4 5 6 8 8 8 7 6 6 7 9 10 10 11 11 12 14 13 9 8 9 13 16 17 17 17 16 17 18 18 18 17 15 16 15 14 15 16 15 15 14 13 12 12 11 10 8 7 7 6 6 6 5 5 4 4 5 6 5 4 3 3 2 3 4 5 3 3 3 2 2 3 3 4 4 3 3 3
8 10 12 9 6 6 2 3 4 5 6 7 8 7 6 9 10 9 7 6 7 7 8 10 9 8 8 7 8 9 9 9 10 10 11 12 14 13 12 12 15 19 18 18 18 16 16 17 19 19 17 15 16 17 16 16 17 16 16 15 13 13 12 10 9 8 7 7 7 7 7 6 5 4 4 5 6 6 6 4 3 3 3 4 4 4 4 3 2 2 2 3 3 3 3 4 4
6 9 13 12 8 6 5 5 6 6 3 5 6 6 5 8 9 9 9 9 9 9 9 10 9 9 8 7 8 9 9 9 9 9 10 10 13 15 14 15 18 21 18 17 16 15 15 14 16 18 17 16 17 19 19 18 17 17 16 14 13 12 12 10 10 9 8 8 8 8 8 7 6 5 5 5 6 6 6 6 6 5 5 5 5 5 5 4 3 2 1 1 2 2 3 4 4
3 6 9 12 10 8 8 7 7 4 2 5 7 7 4 7 8 8 9 9 10 10 10 10 10 9 9 8 8 8 9 9 8 9 9 9 12 15 16 18 21 19 15 14 13 13 13 12 13 15 17 16 17 19 19 18 17 17 15 12 11 11 12 13 11 10 10 9 9 9 8 8 7 6 6 6 6 6 7 7 7 7 6 6 6 5 5 4 3 3 2 1 0 1 2 3 3
2 5 4 7 8 8 8 7 6 3 2 6 9 7 6 6 7 6 8 9 10 11 10 10 10 10 9 9 8 9 9 9 8 9 9 10 11 13 15 17 18 15 13 13 11 9 8 8 9 11 11 12 16 18 19 17 16 16 14 12 12 12 13 14 13 12 11 10 9 8 8 8 8 7 7 7 7 7 7 7 7 7 7 6 6 6 5 5 4 3 3 3 2 2 1 0 1
3 5 4 4 5 5 6 7 6 4 6 8 8 6 6 5 7 6 7 8 8 9 9 8 9 9 9 8 8 9 9 8 9 8 9 11 12 13 13 13 14 13 12 10 10 10 8 7 7 6 5 5 7 11 13 16 16 15 13 12 13 13 14 14 13 12 11 10 9 9 8 8 8 8 8 7 8 7 7 6 6 6 7 7 6 6 6 6 5 5 5 4 3 2 2 2 2
1 6 7 6 6 5 5 6 4 5 8 7 6 4 5 5 8 7 5 3 3 6 7 6 6 7 8 7 7 8 8 8 8 8 9 11 12 13 12 13 14 11 8 13 16 14 11 11 11 10 6 5 5 4 4 9 15 14 12 13 13 14 14 14 14 13 11 10 10 9 8 8 8 8 8 8 7 7 7 7 7 7 8 7 7 7 7 7 7 7 7 6 5 4 4 4 3
4 8 8 7 6 5 5 5 5 7 7 5 5 4 7 6 5 7 6 5 4 3 4 4 3 4 4 5 6 7 8 8 9 9 10 11 12 13 13 13 10 8 16 22 18 12 11 11 11 13 13 12 11 10 6 5 10 12 11 13 13 13 14 13 14 13 12 11 10 10 9 9 9 9 8 8 7 8 8 8 8 8 8 8 8 8 8 8 7 7 7 7 7 6 6 5 5
7 8 7 7 6 6 7 6 7 8 4 4 3 3 7 5 4 7 7 6 4 3 2 1 0 0 1 3 5 6 7 8 9 9 9 11 10 11 13 12 8 18 24 22 12 8 10 10 6 5 9 12 16 18 11 7 7 11 11 12 12 12 12 12 13 13 12 12 11 11 10 10 10 9 8 8 7 8 8 9 9 9 9 9 8 8 8 7 7 7 7 7 8 8 7 7 7
9 9 8 7 6 6 7 7 7 7 3 4 2 2 7 6 4 7 7 6 4 4 3 2 2 1 0 2 4 6 6 7 8 8 9 10 9 9 9 4 13 23 25 18 11 9 10 9 8 7 7 12 17 19 15 12 12 12 11 11 11 12 11 11 12 12 12 12 11 11 11 10 10 9 9 8 8 8 9 10 10 10 10 9 8 8 8 7 7 7 8 8 8 8 8 7 7
10 8 7 7 6 5 6 6 7 8 4 5 4 3 6 7 3 5 6 5 4 5 4 3 2 2 2 2 4 5 6 6 6 7 7 8 8 9 8 14 22 25 22 20 19 15 10 8 9 10 9 12 16 18 19 18 17 14 12 10 10 10 11 10 11 12 12 12 12 12 11 11 11 10 9 8 8 9 10 10 10 11 10 10 9 7 7 7 7 7 8 8 8 7 7 7 7
8 6 7 6 5 5 3 1 1 3 4 5 5 3 2 2 3 4 4 5 6 6 6 6 5 5 5 4 5 5 6 6 6 6 6 7 8 8 12 19 23 23 19 21 25 21 16 14 13 14 14 18 19 18 19 18 16 15 13 10 10 10 10 10 10 12 13 13 14 13 12 12 12 12 11 10 9 9 10 11 11 11 10 10 9 8 7 7 7 7 7 7 7 7 7 7 7
6 7 7 2 2 4 3 2 2 1 6 4 5 5 3 3 4 5 4 4 7 6 7 8 7 8 7 6 6 5 6 7 6 7 7 8 10 11 15 19 20 20 15 18 26 24 17 16 17 19 20 21 19 16 16 14 13 14 13 11 10 10 11 11 12 12 13 13 14 13 13 14 14 14 12 11 10 9 10 10 10 10 10 10 9 9 8 8 7 8 7 7 7 7 7 7 7
4 7 7 3 1 3 4 4 3 4 8 4 5 8 7 6 5 5 4 4 7 6 7 8 8 8 8 7 7 6 7 7 7 9 9 11 13 13 16 17 14 15 11 15 23 23 18 19 22 24 23 20 17 15 14 13 12 12 12 11 11 11 11 12 13 14 13 12 13 13 13 13 15 16 14 12 11 10 10 9 10 10 9 9 9 9 9 8 8 8 7 7 7 6 7 7 6
4 2 5 5 4 6 6 5 5 6 8 5 6 8 8 7 5 5 5 4 6 6 7 9 9 9 8 8 8 8 9 8 7 9 8 9 12 11 12 14 11 9 7 11 16 18 16 19 19 18 15 12 12 11 11 12 11 10 11 12 12 12 12 13 14 15 13 11 12 15 13 11 13 16 15 13 12 11 10 9 9 9 9 9 9 8 8 8 7 7 7 6 6 6 6 6 6
2 2 5 5 4 4 5 5 5 6 7 6 6 7 7 4 2 5 6 4 5 6 7 8 9 9 8 7 8 9 9 8 7 8 7 9 11 7 7 12 12 9 7 5 12 13 13 13 10 10 8 4 4 5 6 8 8 8 10 10 10 11 12 13 14 14 13 10 11 14 12 10 11 13 14 14 13 11 11 10 9 9 9 9 8 8 8 7 7 6 6 6 5 5 5 5 5
7 7 8 6 4 3 4 5 5 6 6 6 6 7 4 2 4 5 6 6 6 7 7 7 8 8 8 8 8 8 9 8 7 8 8 9 10 7 7 12 14 12 7 4 9 10 7 6 4 5 5 1 2 3 4 5 5 6 8 8 10 11 11 12 14 14 12 11 11 11 10 9 9 11 13 14 14 12 11 10 10 10 9 9 8 8 7 7 7 7 6 6 5 4 4 4 4
5 7 9 9 7 6 6 7 6 6 7 5 6 7 2 4 3 3 5 4 5 8 8 7 8 8 8 8 8 8 8 7 8 9 9 9 10 9 9 12 14 12 11 9 8 7 2 2 3 3 4 3 1 0 2 3 4 5 7 8 8 9 10 11 13 14 13 12 11 11 10 9 9 10 12 13 14 13 12 11 11 10 9 9 8 8 7 6 7 7 6 6 5 4 4 4 3
Wind_Direction
182 190 175 168 182 198 195 214 230 190 237 245 227 236 149 119 331 248 248 178 194 101 323 285 201 215 195 335 182 75 26 13 11 357 126 94 149 149 146 148 148 145 143 143 147 154 154 156 154 150 150 149 147 145 143 144 146 147 148 147 147 149 149 149 147 146 145 143 142 141 139 137 135 131 131 130 127 127 129 130 131 132 133 135 136 134 135 135 134 134 130 129 128 125 122 120 118
184 183 173 175 196 211 188 210 246 189 216 237 227 229 123 131 188 202 41 60 73 82 87 96 139 162 354 350 354 143 56 47 45 64 89 123 141 140 146 150 150 145 142 144 145 148 151 156 156 152 151 149 149 148 146 147 148 150 151 150 151 150 150 149 148 147 146 146 142 141 140 139 138 133 130 130 131 133 133 133 131 132 133 135 136 136 137 137 138 137 134 134 131 128 126 124 122
189 179 175 184 200 226 207 202 246 222 212 233 226 179 135 178 156 76 69 83 83 103 127 118 124 110 234 198 141 299 96 74 70 86 111 138 138 141 149 150 149 144 143 144 144 146 150 156 156 154 151 150 150 150 151 150 150 153 154 154 154 153 152 151 151 150 148 146 142 142 143 144 143 138 133 132 134 136 135 133 130 130 132 134 135 136 137 139 140 139 137 137 134 132 129 127 126
183 185 187 192 196 222 215 206 240 245 225 232 218 132 171 194 114 77 82 91 104 140 141 140 125 59 305 132 105 51 100 87 82 103 132 145 144 148 148 147 148 144 145 146 145 147 152 157 155 154 153 151 151 151 152 153 154 154 154 155 155 155 155 154 153 151 148 146 145 146 147 148 147 145 140 137 136 134 133 131 130 131 132 134 134 136 138 139 141 139 140 140 141 138 132 131 128
182 189 201 216 213 214 221 219 236 244 237 240 232 120 175 163 95 65 81 86 213 213 205 189 127 105 47 58 28 41 94 93 109 121 126 132 142 147 147 146 147 146 148 149 148 148 153 157 154 154 152 151 151 150 152 154 156 156 156 156 156 156 154 153 151 149 149 148 149 149 149 152 151 149 146 141 137 134 133 132 131 133 134 135 136 138 138 140 142 141 144 145 146 142 137 138 131
178 179 200 239 262 287 237 223 225 233 237 269 298 115 137 104 37 347 343 270 249 239 218 217 160 137 124 71 31 45 67 92 127 130 129 135 143 146 146 147 148 148 150 153 152 147 153 156 152 152 150 150 150 150 151 150 152 154 155 155 154 153 152 151 150 150 150 149 150 149 150 153 150 149 146 140 139 136 134 133 130 131 135 136 136 138 141 143 142 143 146 145 145 146 144 145 136
179 174 187 225 237 236 236 227 228 227 210 282 303 107 94 358 326 305 281 250 211 210 207 213 191 150 122 121 100 69 55 327 130 134 137 141 142 146 148 151 150 148 151 154 151 147 153 155 151 151 150 150 150 150 150 148 149 151 152 153 153 152 152 152 152 151 149 149 148 146 148 149 148 146 141 141 142 136 133 132 127 129 132 132 136 138 141 142 143 148 148 146 148 150 150 151 146
197 196 184 212 204 204 236 236 238 236 127 54 273 292 327 322 300 282 269 244 193 187 197 192 193 167 122 155 126 80 72 74 116 125 133 140 142 147 150 152 150 149 152 151 149 148 154 154 151 151 151 152 151 151 150 150 150 151 152 153 155 155 154 154 153 150 149 149 146 144 146 148 147 142 140 143 141 134 133 133 128 127 130 129 133 136 139 142 150 156 151 149 152 154 154 153 151
205 213 186 219 218 205 235 239 235 244 255 298 257 275 309 297 281 273 255 239 211 206 197 176 195 184 138 153 110 105 102 102 118 124 135 141 141 146 149 153 151 151 152 149 147 147 154 155 152 151 151 152 151 152 151 151 152 153 155 156 157 157 157 157 154 151 151 149 146 145 148 151 146 143 143 142 135 133 135 134 129 128 133 133 131 136 142 148 152 155 149 148 155 159 160 153 146
202 219 206 223 229 217 228 234 227 225 238 265 283 315 308 280 270 265 253 240 210 202 178 163 200 177 142 139 114 117 115 120 131 132 139 142 142 146 149 153 150 152 152 147 144 144 153 156 154 153 151 151 150 152 152 151 154 156 158 159 158 158 160 159 156 153 152 149 148 147 148 149 144 142 141 137 134 136 138 136 133 133 136 134 133 138 142 147 146 148 147 148 156 158 166 169 153
204 211 224 227 225 226 226 225 214 191 161 227 275 21 330 281 269 258 247 240 213 185 160 175 186 154 139 131 117 113 124 137 143 139 142 143 144 147 149 152 151 153 150 146 142 144 151 155 156 154 151 151 152 153 154 153 155 157 159 159 159 160 162 160 158 155 154 152 151 148 146 146 141 141 139 136 138 140 142 141 142 141 138 132 134 142 146 152 151 151 153 158 161 158 170 178 162
217 190 214 228 225 228 232 241 218 198 184 203 352 27 353 271 260 252 235 222 202 173 166 186 165 152 149 131 118 122 141 151 145 144 145 144 145 148 150 153 154 153 148 144 140 143 149 153 156 155 155 155 154 155 156 156 156 158 158 160 162 162 162 161 159 157 156 154 150 147 143 143 140 141 139 138 142 144 146 149 152 149 140 131 133 144 150 158 163 165 165 170 174 173 179 179 170
233 198 211 228 241 243 243 254 226 225 205 159 19 11 354 262 261 262 243 208 187 170 166 176 155 163 149 118 121 134 150 154 146 147 146 146 147 148 152 155 156 150 144 141 138 142 148 151 154 155 157 158 158 158 158 158 156 158 157 160 162 161 161 158 158 157 156 153 148 144 139 141 142 141 140 140 146 147 150 153 155 150 142 133 136 146 147 157 169 176 179 182 183 182 181 180 177
234 222 230 233 244 251 248 247 215 222 195 107 34 356 10 353 294 264 225 184 169 153 143 144 161 168 141 125 150 159 159 155 150 149 148 148 147 149 154 155 153 146 143 143 142 145 149 152 154 156 159 159 160 160 159 157 155 155 156 160 161 159 157 155 156 156 153 148 143 139 138 142 143 143 143 144 146 148 151 153 147 143 142 136 138 144 141 148 157 165 174 181 183 181 178 173 168
238 245 244 245 240 235 233 239 237 226 160 89 33 344 25 66 337 202 186 175 143 117 124 124 159 182 165 162 175 167 158 156 153 149 149 148 145 148 154 153 148 146 148 149 149 151 154 153 153 156 159 160 160 160 157 155 153 152 157 159 158 155 153 154 155 153 149 144 140 138 140 143 144 145 146 145 145 144 147 153 149 140 138 138 140 138 134 133 132 137 142 150 160 165 167 160 152
238 252 234 244 240 225 211 210 236 226 125 84 39 338 263 102 80 122 67 166 128 127 152 125 62 319 185 170 149 153 151 152 152 147 147 147 145 147 153 151 143 145 150 154 156 155 154 151 153 156 158 159 157 156 153 152 152 151 156 156 153 151 151 153 151 149 146 143 141 139 139 140 143 144 141 142 140 136 140 152 155 144 139 140 142 138 133 128 122 123 127 134 140 145 154 154 151
218 245 233 235 232 221 204 193 205 190 108 88 51 357 339 112 110 108 109 156 134 141 161 114 76 333 143 84 120 141 145 148 149 147 148 150 149 150 156 153 144 145 155 158 157 154 153 153 156 159 161 160 152 149 149 148 150 150 152 150 149 150 151 152 151 150 148 145 142 137 138 138 139 139 137 140 140 139 141 148 151 146 145 143 144 144 141 136 128 126 130 133 135 140 140 144 153
204 225 227 231 228 217 210 200 194 90 91 69 45 9 348 111 129 136 151 143 134 148 142 127 109 87 86 95 124 139 144 148 150 151 152 155 156 155 157 157 152 150 158 157 153 154 155 155 157 161 160 157 148 145 146 147 150 150 149 148 148 150 152 153 153 153 150 148 143 137 140 142 144 147 145 143 144 149 150 150 148 148 151 148 145 148 150 150 145 140 141 142 140 137 124 129 158
215 226 227 233 233 208 182 301 18 39 36 36 44 14 359 76 127 159 176 147 151 164 147 148 133 119 112 121 140 144 147 153 158 160 159 162 163 162 159 157 156 155 160 154 150 154 153 154 159 163 158 153 146 141 139 139 143 145 147 150 150 151 154 156 154 152 148 147 145 142 145 145 147 151 152 152 155 158 160 160 155 154 154 152 150 151 158 163 167 160 154 153 140 127 119 146 175
220 230 232 232 232 234 197 206 199 20 348 359 36 8 13 57 122 195 186 155 169 172 154 170 157 145 140 141 153 152 155 161 167 169 168 170 165 164 161 158 158 159 160 151 148 152 149 152 156 159 157 152 145 141 139 138 141 147 151 152 152 151 153 154 150 147 146 149 151 146 142 143 147 149 152 157 160 157 163 170 166 161 157 157 155 152 163 169 172 169 161 159 146 133 143 170 176
213 218 240 248 217 234 192 172 221 357 333 328 352 321 37 33 325 222 185 163 171 171 158 174 165 157 153 155 164 163 163 167 176 180 178 175 166 162 162 159 156 157 159 150 147 149 149 152 152 152 151 146 141 143 149 150 150 153 155 153 153 153 150 150 147 147 152 156 157 147 145 151 153 153 154 155 158 159 166 175 177 173 168 165 159 158 174 177 174 175 168 167 168 173 171 170 176
219 217 242 275 214 228 175 145 217 334 308 297 304 292 37 356 289 245 205 179 148 135 143 150 161 161 160 162 168 171 173 176 182 185 183 178 167 158 156 155 150 153 159 152 147 147 149 151 148 147 146 144 143 147 155 156 148 149 156 154 157 158 153 156 151 150 156 158 160 156 158 162 163 161 158 157 162 178 179 182 188 184 185 179 169 176 192 188 183 183 175 175 182 184 181 177 178
229 219 225 239 230 236 223 159 167 288 277 274 294 335 358 258 247 274 231 202 66 25 344 308 162 160 160 163 171 177 181 184 184 188 187 177 166 155 152 154 150 154 157 148 144 147 151 150 146 144 144 146 146 148 152 153 147 149 157 156 166 172 160 161 151 149 157 160 164 170 172 169 167 165 165 168 172 191 197 199 200 190 193 190 185 191 200 201 193 188 181 179 188 190 192 188 184
231 228 203 218 230 239 249 249 223 254 268 276 303 301 269 242 226 206 231 226 27 347 304 221 163 155 161 165 177 182 184 189 187 189 186 174 164 150 148 153 151 156 154 143 145 150 149 141 134 134 138 143 145 150 153 154 157 157 157 155 169 176 159 155 150 155 162 164 172 178 178 170 165 166 175 186 190 210 218 215 209 197 195 192 195 198 199 207 203 193 189 188 194 194 192 194 193
227 234 203 207 223 233 244 255 252 253 256 257 271 266 253 244 257 237 220 198 349 319 238 190 164 158 168 173 181 185 187 189 184 189 188 173 157 144 149 156 151 149 139 136 145 143 134 133 143 145 143 146 147 152 152 151 165 166 157 156 165 168 158 154 156 166 167 169 182 180 173 169 173 183 189 196 213 223 225 225 215 200 198 192 195 205 200 203 208 202 201 201 199 198 193 192 194
218 228 221 212 223 230 236 246 249 247 239 231 244 244 229 219 247 231 201 159 161 196 178 170 163 166 172 176 183 188 188 187 183 186 184 160 139 133 140 144 133 118 119 137 143 130 130 146 164 160 151 159 159 153 151 148 172 174 157 158 162 160 163 166 162 169 178 185 191 179 171 178 198 216 203 207 224 214 208 230 233 212 202 194 192 203 205 203 209 206 207 210 204 204 197 190 195
207 224 228 231 235 231 235 244 244 246 233 221 237 238 188 164 229 214 156 145 168 170 166 164 167 171 172 178 184 191 189 180 176 179 176 145 119 111 108 102 99 111 129 146 146 137 148 159 167 160 157 170 164 156 157 152 171 187 169 167 163 158 165 169 168 175 189 200 194 173 175 185 197 210 200 217 227 214 201 210 227 224 205 196 199 202 204 207 212 208 205 210 209 211 201 190 193
206 221 225 231 238 232 232 240 237 239 227 213 231 238 176 175 224 205 127 145 172 165 162 165 174 169 173 185 182 190 188 168 165 163 133 108 105 113 127 133 132 144 154 157 160 164 160 161 166 161 168 176 161 156 158 150 171 194 183 176 167 160 161 163 170 181 197 205 201 185 187 193 192 198 211 222 223 213 204 197 206 218 204 201 210 204 203 208 210 208 201 203 208 206 200 195 191
219 219 230 218 222 229 225 226 223 223 213 184 211 227 197 195 211 166 124 151 164 168 169 166 178 172 174 186 184 188 171 148 142 116 107 115 129 143 160 163 156 164 173 167 169 173 164 163 169 164 173 176 161 155 151 151 178 190 181 177 173 166 163 163 167 185 209 210 211 214 217 220 214 209 223 229 223 210 205 198 204 209 200 208 217 209 209 208 205 204 199 197 203 202 197 195 190
216 214 242 220 215 226 212 209 206 211 198 153 203 230 211 202 196 156 141 164 166 173 177 169 177 173 174 182 186 175 132 114 117 116 124 138 149 158 171 175 167 168 173 172 172 174 172 169 172 168 168 170 163 157 151 159 178 180 176 175 175 171 164 166 170 189 215 213 211 222 225 221 198 194 228 236 226 210 202 200 216 212 203 213 220 217 215 212 209 202 200 200 197 199 194 190 193
211 204 229 231 236 212 183 189 197 202 174 166 210 239 228 197 174 158 155 169 177 182 177 173 175 169 174 178 183 156 108 99 116 129 146 154 155 162 176 179 172 168 166 170 174 176 180 174 175 171 165 172 169 159 158 167 172 169 174 172 172 172 164 166 169 173 180 165 168 173 172 174 165 177 226 233 210 202 196 189 219 219 205 215 225 224 219 222 218 200 203 207 195 196 193 190 195
208 208 214 218 234 189 163 177 198 204 167 181 212 234 239 189 152 154 160 170 184 189 177 173 173 170 174 174 178 143 107 109 123 138 153 145 145 176 182 173 171 172 165 169 174 179 185 178 174 168 172 184 173 162 168 170 169 165 167 167 164 157 150 151 148 148 146 142 144 132 133 148 149 157 190 203 183 192 191 176 212 223 206 216 227 226 222 230 229 210 213 215 202 203 197 192 193
201 219 223 204 214 208 170 170 195 214 175 183 212 235 242 155 138 154 162 175 187 192 182 173 176 174 176 180 175 142 123 127 132 146 143 129 155 186 174 168 173 178 171 170 175 180 181 173 169 169 182 187 168 169 175 167 165 161 156 152 143 132 127 126 127 136 135 133 127 117 125 130 133 142 152 172 170 169 173 174 206 215 204 214 224 229 230 233 232 223 224 221 215 217 212 199 190
190 212 228 206 213 226 190 161 179 204 202 203 211 231 246 138 136 162 167 181 190 194 184 170 177 179 181 188 181 162 151 148 146 154 145 145 186 183 165 169 173 179 179 177 177 178 175 168 169 172 180 180 168 173 170 159 158 154 145 134 124 117 114 113 122 126 122 120 111 108 108 106 120 136 151 172 167 148 161 187 213 213 204 213 224 232 237 241 238 231 228 223 217 221 224 211 191
193 198 217 209 213 228 217 164 156 182 207 218 210 219 236 205 156 170 174 184 193 194 182 169 174 180 187 194 192 177 169 173 162 157 157 171 191 174 167 175 174 179 185 184 180 177 169 163 167 169 174 177 172 169 161 152 151 144 134 126 121 118 117 117 116 112 111 107 100 99 92 90 106 120 139 153 145 136 155 204 233 228 220 220 228 233 230 236 239 231 226 219 214 214 214 209 208
213 199 214 216 202 213 217 156 126 186 209 216 217 217 230 221 188 179 177 181 193 190 177 174 173 180 191 197 200 179 172 185 162 152 165 179 178 165 164 175 180 183 186 186 182 178 167 162 169 173 175 173 165 158 154 150 146 142 139 136 133 132 131 126 118 114 112 105 99 97 91 93 102 105 113 123 127 132 142 176 211 219 231 228 231 238 223 223 232 230 225 213 207 204 198 204 216
245 209 218 224 211 203 201 157 109 213 233 220 220 220 228 225 194 177 176 176 190 191 182 186 181 182 194 197 197 180 175 176 150 147 166 180 176 165 159 168 181 188 186 185 183 176 170 173 177 176 172 166 157 152 153 152 148 149 148 145 142 139 138 134 129 125 113 105 102 101 101 101 102 101 103 109 121 132 138 145 164 190 220 220 216 233 227 224 230 230 224 211 206 203 201 206 207
236 224 217 213 219 204 164 139 122 177 239 228 214 224 227 214 180 170 174 180 191 195 190 192 188 185 193 194 191 180 171 162 146 148 167 179 176 168 163 169 180 188 188 187 188 177 173 183 184 171 166 163 156 152 153 153 151 152 149 145 142 137 136 136 131 126 118 111 106 105 106 105 104 103 100 100 102 111 124 133 152 170 177 183 176 188 199 211 222 221 217 216 216 212 211 207 206
228 224 223 213 211 199 131 126 156 172 233 230 202 220 215 171 174 177 177 190 192 193 197 196 193 192 191 189 185 179 170 160 155 159 168 175 179 174 170 174 185 190 190 189 188 177 174 188 187 168 169 168 159 156 156 155 151 148 144 141 140 133 129 127 125 126 123 117 113 110 107 105 105 104 101 98 91 87 92 105 120 135 144 158 166 167 169 184 206 208 212 216 217 214 211 211 222
227 219 222 213 189 204 182 148 157 167 241 260 214 213 190 144 175 176 174 193 186 193 205 201 199 199 194 186 182 182 175 166 167 169 169 175 182 179 165 172 195 194 191 194 189 181 181 186 184 174 175 174 163 160 158 156 155 150 142 137 132 129 128 127 127 127 125 121 119 116 109 103 98 97 101 96 87 78 73 81 86 88 110 129 134 143 147 159 196 201 207 212 221 227 211 209 234
217 220 230 222 184 213 232 126 143 168 203 239 222 208 187 169 181 174 162 174 188 199 206 206 205 200 193 185 181 186 183 175 175 175 177 179 171 168 165 181 208 201 190 196 192 186 185 183 185 181 178 175 166 163 161 156 154 149 142 137 132 131 135 138 136 134 133 128 121 119 115 107 98 93 93 85 80 77 73 70 72 78 84 100 116 129 137 152 184 197 203 206 226 244 219 203 225
206 212 231 243 216 215 233 138 184 212 192 192 213 215 184 172 183 179 162 174 196 198 202 208 207 201 198 190 182 187 188 184 185 180 188 185 159 161 178 184 210 210 194 194 192 188 189 184 185 182 176 173 167 165 164 157 152 149 147 147 146 146 146 145 143 140 137 129 122 120 116 109 100 92 87 82 84 86 86 85 86 95 89 84 96 108 118 134 153 174 198 197 211 234 217 210 217
205 190 211 229 233 227 233 216 214 232 188 156 214 237 182 168 182 178 169 184 196 196 206 209 205 204 203 195 182 184 186 187 195 186 188 191 162 163 180 185 207 212 195 190 190 188 190 185 184 182 176 174 169 167 166 160 155 155 156 154 154 153 146 140 139 136 132 127 124 122 118 111 103 98 93 84 85 88 89 90 91 95 94 87 85 86 88 91 91 88 117 187 204 202 202 225 217
190 141 195 216 221 222 224 224 224 236 109 143 215 248 215 176 169 164 170 187 194 197 207 207 205 203 199 197 185 181 185 183 193 190 184 195 179 173 182 189 203 207 190 184 185 184 186 181 180 182 180 177 171 168 169 164 159 159 159 154 151 148 140 137 137 133 131 130 129 124 120 115 106 101 98 89 83 81 82 85 87 90 88 86 82 76 72 66 64 62 55 69 56 157 177 226 217
104 98 197 213 212 218 215 222 229 225 206 196 201 226 231 177 141 146 174 190 197 196 200 201 201 198 195 197 187 180 184 180 187 192 186 190 189 187 191 195 201 199 183 177 168 157 160 167 175 179 183 182 174 170 170 165 160 160 158 150 146 141 137 138 136 133 133 133 131 124 118 114 109 105 99 90 81 74 74 76 81 84 77 70 68 62 60 55 50 54 52 53 43 46 83 199 192
83 119 179 178 189 210 214 226 227 200 226 220 183 201 239 183 146 162 184 193 193 186 190 193 192 196 193 191 189 183 178 177 182 187 185 183 185 194 196 198 202 193 179 162 136 126 131 134 133 123 80 75 140 165 171 166 159 158 156 150 145 140 138 138 135 135 137 135 132 124 119 117 114 110 99 89 81 73 67 65 68 72 65 59 55 51 55 58 58 65 66 65 62 56 61 60 72
132 178 184 174 183 195 211 229 228 212 224 210 169 198 249 204 166 168 164 150 140 151 166 171 180 196 195 187 188 185 179 177 175 175 177 173 177 189 195 202 203 190 147 113 108 116 118 117 131 147 136 100 118 157 203 177 157 155 158 150 145 142 141 140 138 139 140 137 133 127 123 120 116 113 105 92 81 73 70 70 68 67 62 55 52 54 62 69 70 69 68 67 68 74 86 87 84
209 206 196 188 189 192 206 208 210 228 225 173 147 199 238 225 174 145 115 79 65 92 136 140 162 189 192 193 191 185 182 175 169 173 170 166 175 184 195 204 191 119 91 96 109 124 122 134 170 187 183 176 173 177 226 235 159 153 159 151 147 146 144 142 141 142 142 138 136 131 128 127 122 117 109 96 80 75 78 78 75 71 64 56 57 63 68 71 71 67 63 59 58 61 70 77 77
212 212 204 202 198 197 209 206 208 227 214 129 137 209 227 221 122 111 104 86 62 42 50 49 18 159 160 203 198 183 178 171 167 169 164 167 178 182 194 204 148 103 99 105 126 147 127 134 160 160 159 168 172 171 189 232 183 161 161 154 150 148 144 143 142 141 142 139 137 137 134 133 130 123 114 101 83 80 82 81 78 72 67 63 65 68 68 65 62 62 63 61 60 58 58 63 63
204 207 205 213 210 202 211 210 213 219 173 114 132 219 223 205 112 88 85 73 64 62 54 15 351 351 31 201 195 177 173 171 164 160 160 168 176 178 183 151 102 107 110 115 133 133 109 102 105 116 155 176 175 171 180 204 196 174 167 159 151 148 143 142 143 141 142 140 139 140 137 135 134 127 119 106 93 89 88 85 83 79 76 73 74 72 68 62 56 61 67 64 62 60 58 61 60
206 214 214 226 230 221 225 226 227 225 186 137 150 208 225 205 126 70 74 80 83 88 93 92 85 99 130 159 165 163 160 153 145 144 152 158 163 165 133 96 102 117 126 137 145 146 145 148 151 158 185 200 191 182 185 197 195 180 172 162 150 147 142 140 142 142 144 144 142 141 137 136 136 131 124 115 107 102 97 94 91 87 84 81 81 80 76 68 61 68 72 67 64 62 62 65 65
198 223 224 230 245 235 231 291 308 261 220 172 175 209 242 181 114 91 94 96 94 95 104 109 109 114 120 124 127 137 135 130 136 139 141 141 139 131 111 108 120 130 140 152 155 159 173 183 178 172 189 205 201 192 189 193 192 184 177 167 151 144 141 140 144 147 151 151 146 142 140 139 137 134 131 126 120 116 111 107 101 96 92 89 88 86 84 82 77 78 77 71 66 63 64 68 71
174 213 220 205 297 259 234 170 98 285 245 198 180 210 196 161 153 125 123 108 96 95 101 105 106 112 117 115 119 129 128 129 142 136 121 115 108 98 106 120 131 132 148 170 162 161 173 180 181 182 192 203 197 193 193 188 187 187 184 177 163 154 150 149 150 154 158 158 150 145 145 144 140 137 138 136 132 129 123 118 111 105 100 96 94 92 91 92 89 89 86 79 72 67 69 69 71
201 211 199 129 50 248 244 236 192 214 236 202 180 214 206 191 183 140 147 126 97 93 97 104 109 108 103 102 111 120 122 128 134 121 105 97 90 85 108 133 142 133 162 192 162 154 173 184 189 193 195 201 196 190 192 190 188 187 185 185 178 170 165 160 160 161 164 165 158 152 152 152 145 140 142 143 140 138 133 126 119 113 108 104 101 98 98 98 96 97 95 90 85 79 77 75 73
270 238 178 173 222 215 209 230 223 214 229 216 190 209 214 207 189 158 172 138 95 100 105 108 106 99 95 96 103 108 113 124 125 113 99 91 84 77 110 140 151 145 207 215 146 143 187 196 196 197 189 192 199 192 191 193 191 187 189 192 187 178 171 167 168 167 168 173 168 159 157 159 150 142 143 146 144 143 141 135 129 123 119 115 110 106 104 102 101 102 101 98 95 92 90 88 84
231 247 197 205 245 235 210 217 230 230 232 223 202 207 214 208 124 125 151 130 111 120 114 108 97 88 88 93 102 109 114 120 118 112 108 103 96 94 129 142 146 161 223 225 124 140 207 218 209 207 189 159 171 180 181 184 184 188 194 192 186 180 175 172 172 171 172 173 170 164 162 164 156 148 148 149 147 147 146 143 140 136 133 129 123 119 116 113 110 109 107 104 102 102 100 96 97
199 213 208 206 213 235 242 226 229 248 243 226 221 222 203 101 55 83 113 116 132 138 123 112 100 90 84 89 106 114 114 112 104 102 105 102 103 115 145 142 145 161 177 146 135 160 217 257 258 241 245 253 85 108 131 150 168 180 184 186 184 180 178 176 174 173 173 171 170 170 171 171 163 156 156 152 149 149 150 148 146 143 141 140 135 131 128 125 123 119 116 113 114 115 108 102 104
226 220 216 216 211 213 229 224 213 234 251 246 239 235 160 78 38 65 93 110 140 143 137 121 107 98 88 91 108 112 105 101 97 101 107 106 110 123 140 142 146 159 158 147 158 166 176 279 292 303 290 283 304 24 124 143 163 171 177 184 184 182 183 180 176 175 174 172 173 174 178 180 173 167 164 157 152 151 152 152 150 147 146 145 143 141 138 135 134 130 129 128 126 125 118 111 112